CMS-02 (GSAT 24)

Last updated on Mon Oct 14 2024 00:02:41 GMT+0000 (Coordinated Universal Time)

1 52903U 22067A 24287.53313321 -.00000166 00000+0 00000+0 0 9992 2 52903 0.0198 143.5859 0004784 334.4050 179.5505 1.00270522 8465
UTC large
Height (km)
Speed (km/s)
/
Latitude / Longitude
Inclination (degrees)
Orbital Period (minutes)
Azimuth
Elevation
Range (km)
Doppler Factor

Next 0 passes for location: London (51.5072 / 0.1276)

Sorry there are no passes over London.